ARIANE 1 DEB

Satellite information

Favourite Embed

Satellite Type and Status

DEBRISIN ORBIT

Key statistics

Satellite ARIANE 1 DEB at a glance.

Uptime

14319

Days in orbit

Revolutions

≈ 14.3

Per day

Orbit

SSO

Sun Synchronous Orbit

Inclination

98.4

Latest

Satellite identification and parameters

Extended collection of information and parameters for ARIANE 1 DEB.

Object identification

Identified? True

Debris? True

Object name: ARIANE 1 DEB

International designator: 1986-019FL

Object number (NORAD): 35408

Object ID (CCSDS): 35408

Country: FRANCE (FR)

Current information (Y/N): Y

RCS size: SMALL

Orbital parameters

Period: 100.799 minutes

Inclination: 98.3821 deg

SMA: 7174.617 km

Apoapsis: 818.17 km

Periapsis: 774.794 km

RAAN: 176.7606 deg

Eccentricy: 0.0030229

Argument of periapsis: 285.7233 deg

Mean anomaly: 229.2486 deg

Mean motion: 14.28580304 rev/day

Mean motion (dot): 0.00000692 rev/day2

B* drag term: 0.00029123 1/REarth

Two-line elements (TLE)

Creation date: May 6, 2025, 3:54 a.m.

Reference frame: TEME

Reference center: EARTH

Epoch: May 5, 2025, 2:25 p.m. UTC

TLE line 0: 0 ARIANE 1 DEB

TLE line 1: 1 35408U 86019FL 25125.60081764 .00000692 00000-0 29123-3 0 9998

TLE line 2: 2 35408 98.3821 176.7606 0030229 285.7233 229.2486 14.28580304966955

Live tracking on map

Real-time ground track for satellite ARIANE 1 DEB.

In-orbit conjunctions

A list of the most updated potential collisions computed for object ARIANE 1 DEB.

Target Orbit TCA Probability of collision Miss distance Type
COSMOS 2251 DEB LEO 2025-05-05 18:22:57 0.0001831694 350.0 (m) DEBRIS
CZ-4C DEB LEO 2025-04-29 03:05:50 0.0001184332 399.0 (m) DEBRIS
CZ-6A DEB LEO 2025-04-22 20:05:52 0.0001685196 202.0 (m) DEBRIS
COSMOS 1538 LEO 2025-04-11 20:07:46 0.00418575 78.0 (m) PAYLOAD
THOR ABLESTAR DEB LEO 2024-11-08 15:45:18 0.0002277927 612.0 (m) DEBRIS

Associated space launch

SPOT 1 is a French Earth observation satellite. Viking is Sweden's first satellite.

ARIANE 1 DEB was lifted into orbit during the mission ‘Ariane 1 | SPOT 1 & Viking’, on board a Ariane 1 space rocket.

The launch took place on Feb. 22, 1986, 1:44 a.m. from Ariane Launch Area 1 (ELV).

For more information about the launch, click the button.

Launch to space Ariane 1 | SPOT 1 & Viking
Ariane 1 | SPOT 1 & Viking

Agency: N/A

Status: Launch Successful

Launch date: Feb. 22, 1986, 1:44 a.m. UTC

Rocket: Ariane 1

Launch pad: Ariane Launch Area 1 (ELV)

Location: Guiana Space Centre, French Guiana

...

Latest news about this satellite

There are no fresh news available about this satellite. Check back as we update our databases every day.


Newsletter sign-up

Weekly statistics, charts and insights to help you stay on top of the space industry.